Overview Statistics Trail Chart Weather Telemetry Raw packets
 

This is the latest recevied weather packets stored in our database for station/object SR3WXA. If no packets are shown the sender has not sent any weather packets the latest 10 day(s).

<< 146 147 148 149 150 151 152 >>
Time Temp. Humidity Pressure Rain* Wind** Luminosity Snow
1787984615 17.78° C 94% 1011.5 hPa 0 mm - 100 W/m² -
1787984530 17.78° C 94% 1011.5 hPa 0 mm - 100 W/m² -
1787984302 17.78° C 95% 1011.5 hPa 0 mm - 206 W/m² -
1787984230 17.78° C 95% 1011.5 hPa 0 mm - 206 W/m² -
1787983930 17.78° C 95% 1011.5 hPa 0 mm - 239 W/m² -
1787983709 17.78° C 95% 1011.6 hPa 0 mm - 121 W/m² -
1787983631 17.78° C 95% 1011.6 hPa 0 mm - 121 W/m² -
1787983383 17.78° C 95% 1011.7 hPa 0 mm - 95 W/m² -
1787983330 17.78° C 95% 1011.7 hPa 0 mm - 95 W/m² -
1787983091 17.78° C 95% 1011.6 hPa 0 mm - 98 W/m² -
1787983030 17.78° C 95% 1011.6 hPa 0 mm - 98 W/m² -
1787982730 17.78° C 95% 1011.5 hPa 0 mm - 104 W/m² -
1787982131 17.78° C 95% 1011.7 hPa 0 mm - 44 W/m² -
1787982085 17.78° C 95% 1011.7 hPa 0 mm - 44 W/m² -
1787981876 17.78° C 95% 1011.7 hPa 0 mm - 32 W/m² -
1787981785 17.78° C 95% 1011.7 hPa 0 mm - 32 W/m² -
1787981538 17.78° C 95% 1011.7 hPa 0 mm - 32 W/m² -
1787981485 17.78° C 95% 1011.7 hPa 0 mm - 32 W/m² -
1787981290 17.78° C 95% 1011.8 hPa 0 mm - 25 W/m² -
1787981185 17.78° C 95% 1011.8 hPa 0 mm - 25 W/m² -
1787980934 17.22° C 94% 1011.7 hPa 0 mm - 40 W/m² -
1787980885 17.22° C 94% 1011.7 hPa 0 mm - 40 W/m² -
1787980646 17.22° C 94% 1011.5 hPa 0 mm - 53 W/m² -
1787980585 17.22° C 94% 1011.5 hPa 0 mm - 53 W/m² -
1787980318 17.22° C 94% 1011.5 hPa 0 mm - 30 W/m² -

* Rain latest hour (hover to see other rain measurements)
** Current wind speed in m/s (hover to see current wind gust speed)